RH
12 12 11 11 10 10 9 9 8 8 8 8 8 8 8 8 8 9 10 11 13 14 13 14 13 14 15 15 15 14 13 11 10 10 9 8 8 8 7 8 8 9 9 8 9 9 9 8 8 8 8 11 13 14 14 14 14 14 14 15 15 13 11 14 19 18 17 18 15 18 23 26 29 33 32 32 35 36 38 39 36 31 30 35 39 42 44 46
12 12 12 11 11 11 10 10 9 9 8 8 8 8 8 8 7 8 8 9 11 13 14 13 13 13 14 15 16 15 13 12 11 9 9 9 8 8 8 7 8 9 10 9 9 9 9 8 8 8 9 13 14 15 14 14 14 13 14 15 13 11 10 15 20 18 18 18 15 17 24 29 32 35 33 36 42 42 43 45 40 38 40 42 43 46 49 49
14 13 12 12 11 11 11 10 10 9 9 8 8 8 8 8 8 8 7 8 9 11 13 14 13 13 13 15 16 16 14 13 11 11 12 11 10 8 8 8 8 9 9 9 9 9 9 9 9 9 12 15 14 15 15 15 15 13 14 14 12 9 10 16 21 20 18 17 17 17 22 26 29 35 36 39 43 44 46 45 42 45 48 47 46 49 54 54
14 14 13 13 12 11 11 10 10 10 10 9 9 9 9 9 8 8 7 7 8 9 11 13 14 13 13 15 16 16 15 14 14 15 14 13 12 10 8 9 9 9 9 9 9 9 9 11 11 11 13 15 14 15 15 15 16 15 14 13 11 9 11 18 21 20 18 17 18 18 22 24 25 33 38 38 42 46 45 37 35 42 47 48 49 52 55 56
13 13 13 12 12 11 10 10 10 9 9 9 9 9 9 10 10 9 8 8 7 7 9 11 13 13 14 14 15 16 15 15 19 20 18 16 15 12 10 10 10 10 10 10 10 9 11 13 14 13 14 15 15 16 16 15 16 15 14 13 10 10 14 18 20 21 20 18 19 20 23 24 23 29 34 33 38 43 37 30 29 34 40 45 49 53 56 57
11 11 11 11 11 11 10 10 9 9 9 9 9 9 9 10 10 10 9 8 8 7 7 9 11 13 13 14 14 15 15 15 18 20 19 18 18 16 14 13 12 12 11 11 10 10 13 14 14 14 14 15 16 16 16 16 16 16 14 13 11 11 16 20 19 21 22 20 19 20 24 25 23 25 27 27 29 32 28 27 31 35 37 41 48 55 59 60
12 11 11 11 10 11 11 10 10 9 9 8 8 9 9 9 10 10 10 9 8 7 7 7 9 11 12 13 13 14 16 14 14 16 15 16 17 17 17 16 15 13 12 11 11 12 14 15 15 14 15 16 16 16 16 16 17 16 14 12 12 11 16 20 20 22 23 22 20 20 23 26 25 22 24 27 26 27 27 29 32 37 41 44 50 57 61 63
12 12 11 11 11 11 11 10 10 10 9 9 8 9 8 9 9 10 10 9 9 8 8 7 8 9 10 12 12 13 14 12 14 16 14 15 16 16 18 17 15 14 14 12 12 13 15 15 15 15 15 16 17 17 17 18 17 17 14 12 12 12 15 19 21 23 23 22 20 20 22 25 26 23 26 33 30 27 30 32 34 38 41 44 51 57 61 64
13 12 12 12 11 10 11 10 10 10 10 9 9 9 9 9 9 10 10 10 9 9 8 8 8 8 9 10 11 13 11 11 16 17 16 17 17 18 20 18 16 15 15 14 13 14 16 16 16 16 18 18 18 18 18 19 18 16 15 13 13 12 15 19 21 22 23 23 21 21 22 22 23 21 25 31 30 30 33 35 37 37 37 41 49 57 61 64
14 14 13 12 12 11 11 10 10 10 10 10 10 9 9 9 9 9 10 10 10 10 9 9 8 7 9 9 12 14 10 13 19 18 18 19 19 21 21 20 19 18 17 17 16 16 16 16 17 19 21 20 20 19 19 19 18 15 14 14 13 12 13 18 21 22 23 23 22 22 21 20 20 17 20 27 30 31 34 38 39 36 37 41 51 60 62 64
15 15 14 13 13 13 12 11 11 10 10 10 10 10 10 9 9 9 10 11 11 11 11 10 8 8 8 9 13 13 9 13 18 18 19 19 20 23 22 20 20 20 19 19 19 19 17 17 20 22 21 20 19 19 18 18 17 15 15 13 12 12 12 17 21 22 24 24 23 21 20 19 18 16 18 26 32 31 32 39 40 37 37 42 50 56 57 59
16 15 14 13 13 12 13 13 12 11 11 10 9 9 9 9 9 9 9 10 11 12 12 12 11 9 9 9 11 9 7 11 14 17 18 17 21 23 23 21 20 21 20 20 23 21 18 19 22 23 21 18 17 18 17 17 16 16 16 14 13 12 12 15 19 21 23 23 23 21 19 18 17 17 18 24 30 29 32 38 39 38 37 39 47 54 54 53
16 15 15 14 13 12 12 12 11 12 12 11 10 10 9 9 9 10 9 10 10 11 12 12 12 12 11 12 9 6 7 9 10 13 14 16 20 23 23 22 21 21 20 21 24 23 22 21 21 21 20 19 17 16 16 16 16 16 16 15 14 14 12 13 16 20 22 22 22 21 20 19 16 15 16 20 25 26 33 40 39 38 38 39 48 55 56 52
16 15 15 14 14 13 12 11 11 11 11 11 11 10 10 9 9 9 9 10 10 11 11 11 13 13 14 13 9 8 10 10 10 11 11 15 20 23 21 22 22 22 20 22 23 23 25 23 22 21 19 20 18 17 17 16 16 16 16 16 15 15 14 13 13 17 20 22 22 20 20 18 16 14 11 16 23 24 30 36 36 39 40 43 48 51 51 51
16 15 15 14 14 14 13 12 11 10 10 10 10 10 10 10 9 9 9 9 9 10 10 12 15 16 18 16 10 10 11 10 11 11 12 14 18 23 22 22 22 21 20 22 24 25 26 25 23 22 20 19 18 18 18 17 18 17 17 19 17 15 15 13 13 14 16 19 20 19 19 17 15 13 9 14 22 23 26 31 33 37 41 46 48 45 45 48
17 16 15 14 14 14 13 12 11 11 10 9 9 9 10 10 10 9 9 9 8 10 10 15 20 21 22 19 14 14 13 11 11 11 14 14 17 22 22 22 21 20 19 20 24 26 26 25 24 23 21 19 19 19 19 20 21 20 19 20 19 16 16 14 12 13 13 15 17 16 18 17 14 12 9 13 21 21 24 29 30 35 41 45 45 43 42 43
18 17 16 15 14 13 13 12 12 11 11 10 10 9 9 9 9 9 10 9 10 11 12 17 25 25 21 16 14 15 16 16 15 14 16 16 18 20 22 23 21 20 20 20 23 25 26 26 25 27 24 20 19 19 20 21 21 22 20 20 20 18 16 15 13 13 13 13 15 15 16 15 13 12 10 12 20 22 23 28 29 36 43 44 43 44 42 41
19 18 17 16 14 14 13 13 13 12 11 11 10 10 9 8 8 8 10 12 15 18 19 21 25 25 21 18 15 16 18 20 21 20 19 19 19 19 22 25 25 26 23 21 23 24 25 25 26 29 28 22 20 20 21 20 19 21 20 21 21 19 18 17 16 16 15 14 15 15 15 15 12 12 11 12 18 23 24 27 33 40 43 42 43 42 39 40
19 19 18 17 16 15 14 13 12 12 11 10 10 10 9 9 9 12 18 20 22 25 24 25 24 21 20 20 20 20 21 22 23 22 21 21 20 18 23 27 30 32 30 27 26 24 24 25 26 28 27 24 22 20 20 18 18 19 20 21 21 20 20 19 18 17 16 15 15 15 14 14 13 13 13 12 17 22 24 29 38 44 43 41 42 41 39 40
19 19 18 17 16 15 14 13 12 11 11 10 10 10 9 10 12 19 25 23 21 20 18 20 20 19 19 19 22 24 23 22 24 24 24 23 21 18 22 28 32 34 33 32 30 25 24 25 26 25 26 26 24 23 20 18 19 19 19 19 19 21 21 19 18 18 18 18 17 15 15 15 16 17 16 13 17 22 25 30 38 43 44 43 43 42 41 42
18 17 17 16 15 15 14 12 12 11 10 10 11 11 10 10 11 15 18 15 13 13 13 14 16 18 18 18 22 24 24 23 23 26 27 25 22 20 23 29 32 36 36 34 31 27 25 26 25 24 25 26 25 25 24 21 19 19 19 19 20 22 21 20 20 20 22 23 18 17 18 18 17 18 18 16 16 21 26 31 36 40 45 47 46 43 42 44
18 17 16 16 16 16 15 14 12 11 11 12 14 13 12 12 12 13 13 13 12 13 13 13 13 15 15 15 20 24 27 26 24 25 28 27 24 23 26 30 33 37 37 34 31 28 27 27 25 23 24 25 25 26 26 24 21 21 22 22 23 23 22 22 22 25 29 26 20 19 20 18 17 18 19 19 19 22 27 32 37 41 45 49 49 46 46 47
18 17 17 17 17 16 16 16 14 14 14 16 18 15 12 14 15 16 17 16 14 13 13 14 14 14 15 14 16 23 27 27 26 26 27 28 27 27 28 30 33 35 34 33 32 30 29 27 23 23 25 25 25 24 25 24 24 26 27 27 25 23 25 25 26 29 30 27 22 20 21 18 18 18 19 24 28 29 31 35 41 43 47 51 50 49 50 50
17 16 16 16 16 15 16 16 15 16 19 22 21 15 13 15 15 16 19 18 16 15 13 13 13 13 15 14 13 19 25 25 25 27 28 28 28 29 29 30 34 34 32 32 30 28 29 26 23 25 28 28 26 24 24 25 26 28 30 28 25 26 28 29 32 32 29 28 25 22 21 22 23 20 21 29 36 38 39 42 45 46 51 55 53 52 52 50
16 16 16 15 15 15 15 15 15 18 22 25 21 15 15 17 16 16 19 23 20 16 13 12 13 13 13 13 13 17 24 26 24 26 29 29 29 30 29 30 32 33 31 29 27 26 27 28 25 26 29 30 29 25 23 26 27 28 30 29 29 33 33 33 35 34 30 30 29 25 22 24 28 24 24 32 39 42 44 47 49 51 55 57 54 53 51 49
16 16 16 16 16 15 15 15 16 17 19 21 20 17 16 17 18 18 22 31 27 18 15 13 12 14 15 16 16 17 23 25 23 26 28 29 29 30 31 31 30 32 30 26 25 24 25 27 26 27 30 29 30 26 23 27 29 28 30 30 33 38 36 36 36 32 33 33 32 30 27 28 29 28 31 38 42 44 45 47 50 54 57 56 54 52 50 49
17 17 16 16 16 16 16 15 15 16 19 22 21 19 18 20 21 20 25 35 32 22 20 17 14 16 19 21 19 18 24 25 24 27 28 28 31 31 32 32 30 29 27 25 24 22 23 27 27 28 30 30 30 28 26 29 29 29 30 28 33 39 37 37 37 33 35 37 36 34 32 31 31 33 39 43 46 47 47 47 48 50 55 55 54 51 49 49
17 16 15 16 16 17 16 15 15 19 25 26 22 21 22 24 23 27 35 38 32 29 29 23 18 19 22 24 23 24 27 27 28 29 26 27 32 32 33 32 29 27 25 25 25 23 25 27 26 28 29 30 29 28 29 30 29 30 31 26 28 36 37 35 34 33 34 35 39 41 36 34 38 43 43 44 49 51 50 49 47 48 51 54 55 51 49 49
15 15 15 15 16 17 15 15 16 21 27 26 23 23 25 25 25 34 46 40 28 29 33 32 29 25 25 25 26 28 28 28 32 33 28 27 30 32 33 33 30 26 25 26 24 24 26 25 24 26 28 28 28 28 31 31 31 31 29 25 25 32 35 35 33 34 34 34 39 46 42 37 43 48 45 46 54 54 52 51 50 51 52 56 58 54 53 53
15 14 15 16 16 16 15 14 14 19 26 24 23 25 24 27 32 43 49 37 25 25 30 38 40 34 31 30 30 30 29 29 32 33 31 31 32 31 33 34 33 29 28 29 25 23 24 24 24 25 26 28 27 29 30 30 30 29 26 23 24 30 36 38 38 37 39 42 43 46 46 41 44 49 48 50 53 52 52 53 54 54 56 59 58 57 57 57
15 15 16 17 15 14 14 13 13 19 24 22 21 23 25 29 38 52 48 31 26 28 29 37 42 40 37 35 35 35 33 32 32 33 33 34 35 35 34 35 35 33 33 31 27 25 24 24 26 26 26 28 27 28 29 28 26 23 23 22 24 34 40 42 42 37 40 49 48 46 46 43 43 48 51 52 51 52 53 53 54 55 57 60 61 64 64 61
13 14 15 13 11 11 11 10 13 18 20 20 19 19 26 32 39 50 42 30 34 35 33 37 39 42 44 39 38 39 39 38 35 35 35 35 38 38 36 37 36 34 35 35 31 28 27 25 27 28 27 28 28 30 28 27 24 21 23 24 24 34 42 48 51 45 44 47 44 44 44 42 45 49 53 55 54 53 53 53 55 56 59 63 66 69 67 65
10 11 10 8 9 11 10 8 9 12 15 17 15 17 28 35 38 40 33 31 39 38 38 40 35 38 46 48 45 42 44 45 40 37 36 36 39 39 37 39 36 32 35 36 32 29 29 28 28 27 27 28 29 31 30 29 27 22 23 24 25 33 43 53 56 51 44 40 39 42 40 43 52 53 53 57 55 53 52 54 57 59 63 67 68 68 67 67
9 8 5 7 11 11 9 7 4 8 12 12 12 19 25 27 31 33 28 30 38 39 41 42 36 33 37 45 50 48 47 46 42 41 39 37 39 40 40 40 36 32 32 34 33 31 31 32 32 28 26 28 28 29 30 31 30 26 25 25 26 34 40 44 48 46 43 40 41 41 38 45 60 61 55 54 54 56 58 58 58 61 66 68 68 69 70 69
8 7 5 10 15 13 9 6 5 7 8 9 15 22 22 20 24 27 27 31 37 41 43 40 38 37 36 42 52 55 52 50 47 44 41 39 39 41 42 42 40 36 32 34 36 33 30 33 35 31 28 29 28 29 27 27 31 32 30 27 27 30 36 38 43 44 42 42 42 45 50 55 60 61 57 55 56 61 65 63 60 62 65 67 69 71 72 68
11 9 7 11 19 19 12 6 6 8 8 10 16 21 21 20 20 20 22 29 35 38 40 41 42 43 44 45 51 55 56 58 58 53 45 41 39 41 46 46 47 43 35 36 38 33 30 32 34 33 31 29 28 32 30 26 34 39 34 33 33 33 36 40 43 45 45 47 48 55 64 63 59 59 60 61 64 67 70 70 67 67 68 68 70 72 72 67
16 16 15 18 24 25 18 10 10 11 13 17 20 21 21 17 14 13 15 23 32 35 39 46 48 46 47 47 48 53 56 58 61 59 55 52 48 49 52 51 51 51 42 36 37 37 33 33 35 33 33 33 30 34 36 29 32 40 39 39 39 37 39 43 48 54 58 59 60 63 69 70 69 69 67 68 71 72 74 76 75 74 73 71 71 71 70 67
18 23 27 30 31 32 28 22 19 15 19 25 27 24 21 15 10 10 10 15 28 36 40 47 50 46 46 45 46 52 55 57 60 61 62 62 58 56 56 53 52 54 49 40 37 40 36 35 38 36 34 37 35 33 38 37 29 33 42 44 42 43 46 45 48 57 62 63 62 63 67 71 74 75 74 73 75 76 75 76 76 76 74 71 69 69 68 67
19 27 35 37 36 37 36 33 28 24 26 31 30 25 19 14 10 10 10 13 22 33 40 46 48 47 45 43 44 49 51 56 62 64 64 64 65 64 61 58 55 55 54 48 42 42 39 36 40 42 37 40 45 40 40 43 35 32 42 46 45 50 52 48 46 51 58 65 65 61 64 71 74 76 79 77 75 76 76 75 75 74 72 69 68 68 68 68
22 33 40 40 39 40 39 36 31 30 33 35 33 26 20 17 13 11 16 19 22 29 37 41 43 46 47 44 45 49 49 54 62 64 66 68 70 70 65 61 61 58 56 53 49 47 45 39 40 47 44 43 53 51 41 42 40 36 42 45 44 45 45 44 47 48 52 64 69 62 63 74 77 77 80 78 73 74 78 79 78 74 71 70 68 68 69 72
31 40 43 42 42 40 37 36 35 37 41 42 39 32 27 26 21 18 21 24 26 29 34 40 41 45 49 47 47 50 50 54 59 60 64 69 71 72 68 64 64 64 63 61 55 50 51 48 44 48 49 50 56 52 43 43 43 40 41 42 43 45 45 47 50 49 50 56 59 59 65 77 80 76 77 76 73 75 78 80 81 76 73 73 71 71 72 74
37 43 43 43 43 39 38 43 45 45 46 45 43 38 33 31 27 24 24 26 30 30 34 44 49 47 50 50 49 50 49 52 56 57 60 65 67 69 68 63 61 64 68 69 63 56 56 55 49 47 50 54 54 49 46 48 46 43 43 43 47 51 51 56 58 53 51 51 51 56 67 79 82 78 77 76 77 78 75 78 84 80 75 75 75 75 74 72
35 41 43 42 41 39 42 50 53 52 50 46 43 41 38 36 32 30 29 30 33 32 33 44 53 53 53 50 49 50 49 51 56 59 63 66 63 62 61 60 60 62 67 71 70 64 61 58 52 51 56 59 56 51 48 48 49 50 50 50 51 49 48 56 61 58 56 55 54 58 69 80 83 83 82 79 80 79 75 80 88 83 76 73 73 73 71 70
36 40 43 43 41 40 44 48 48 50 50 46 45 46 44 42 39 35 35 37 39 37 35 40 49 54 53 50 49 51 51 53 57 59 60 63 61 57 57 57 58 61 64 69 69 65 63 63 60 59 62 61 58 55 53 53 56 57 56 56 55 52 50 50 53 57 58 56 53 57 69 80 83 85 86 82 81 82 82 87 89 83 77 73 70 69 68 71
39 39 41 41 39 39 43 44 44 46 48 47 48 47 43 43 46 44 41 42 43 42 39 39 43 48 52 52 51 54 56 56 58 57 56 60 61 57 57 59 59 60 63 65 67 68 71 74 70 67 68 65 61 63 63 61 61 62 62 60 59 59 55 48 48 54 56 54 56 62 72 81 82 83 87 84 80 83 87 90 89 82 78 76 71 69 71 74
40 38 38 38 39 39 40 41 44 48 52 55 54 50 46 46 50 52 51 49 45 43 42 39 37 42 50 55 55 58 62 59 58 60 61 63 63 59 60 63 63 62 62 61 65 72 78 79 76 72 71 69 66 66 66 64 64 67 67 64 64 64 62 58 56 57 55 56 63 69 71 77 80 81 84 83 81 83 87 90 90 85 82 83 79 74 75 78
36 36 36 38 40 42 43 44 48 51 53 58 60 59 56 54 52 55 59 59 52 46 44 41 37 40 49 56 60 63 66 63 60 62 65 63 61 59 62 67 67 65 64 63 66 75 82 82 79 76 72 70 69 67 64 63 64 67 69 69 69 68 65 64 63 61 58 58 67 75 72 72 79 82 82 83 82 85 89 88 88 86 84 86 84 78 77 79
32 31 31 35 39 44 48 47 50 53 54 60 67 66 61 57 56 58 63 64 58 52 52 50 42 39 44 53 62 65 66 66 66 67 67 63 62 65 66 69 70 68 67 68 71 78 83 82 79 79 79 77 76 73 69 68 68 68 70 73 74 72 69 69 67 67 64 60 67 79 78 74 79 82 81 80 81 84 86 83 83 84 82 80 78 76 75 76
30 30 30 33 38 43 45 45 49 52 53 63 71 66 59 58 60 63 65 66 64 57 57 59 53 43 40 46 56 63 65 66 69 71 69 64 66 71 70 69 69 67 70 76 77 77 81 82 81 83 86 85 84 82 79 76 75 73 73 74 74 72 73 73 72 70 68 65 68 76 80 80 81 78 76 78 79 80 81 79 79 79 78 77 76 75 75 74
30 34 34 36 41 43 42 42 47 51 57 69 70 61 63 68 64 64 63 62 67 65 59 62 63 55 47 45 49 56 62 65 66 69 67 65 67 69 67 69 71 70 72 77 79 78 80 84 86 87 90 90 86 85 85 82 79 78 78 76 74 72 71 72 74 72 72 73 74 76 80 84 84 80 77 78 80 82 82 80 79 77 77 76 76 77 76 74
32 36 36 39 45 45 40 39 44 52 63 73 68 60 71 80 71 68 68 61 63 70 69 69 69 65 61 56 51 51 56 59 61 63 62 61 64 63 63 67 72 73 75 75 76 80 83 86 88 88 91 93 87 87 92 87 81 83 84 80 78 74 71 72 76 77 78 79 80 81 83 85 86 84 81 79 80 84 85 83 80 79 78 77 77 77 76 74
34 37 37 40 42 39 36 37 44 54 62 69 65 56 66 80 75 73 76 69 62 63 65 67 68 67 69 66 56 50 50 52 56 57 55 53 55 57 59 62 64 71 77 77 76 79 81 83 86 87 91 93 89 91 94 88 85 90 89 82 79 75 72 74 77 78 80 81 83 86 88 86 86 87 86 86 85 86 87 86 84 83 81 78 76 75 74 73